Theta_e
290 292 291 289 289 289 289 288 288 288 289 289 289 290 290 291 291 291 291 292 292 292 293 293 294 296 298 298 299 300 302 301 295 291 289 290 292 294 295 300 307 307 307
290 291 290 289 288 288 288 289 289 288 289 289 290 290 290 291 291 290 290 291 291 290 292 292 293 296 296 298 299 299 301 302 299 290 288 290 290 293 295 295 297 302 307
290 290 289 287 288 287 288 288 288 288 289 290 290 289 290 290 290 291 291 291 291 291 291 292 293 294 293 295 297 296 299 300 296 287 287 287 287 291 288 290 290 291 294
290 289 288 287 287 287 288 288 288 288 289 289 289 289 290 290 290 290 290 291 291 291 292 293 292 292 294 294 295 294 297 300 292 289 286 286 287 287 289 288 286 287 288
289 288 287 287 287 287 287 287 288 288 289 289 289 289 289 289 290 290 290 290 290 290 291 292 292 293 291 294 294 294 293 298 294 288 285 285 285 286 289 287 289 286 285
288 287 287 287 287 286 286 287 287 287 288 288 288 288 288 288 290 291 291 290 290 290 289 291 291 288 290 292 293 294 295 295 292 291 287 286 285 285 286 287 285 285 285
287 287 287 286 285 286 286 286 286 286 287 287 287 287 287 288 290 291 290 290 290 289 290 289 289 291 288 290 292 294 294 296 297 295 290 289 287 288 288 286 286 286 285
286 286 286 285 285 285 285 285 286 286 286 286 286 286 286 288 290 291 290 290 290 289 290 289 289 288 289 288 289 290 291 294 295 292 293 290 290 289 289 288 287 282 283
285 285 285 285 285 285 285 285 285 285 285 286 286 285 285 286 289 291 291 288 287 287 288 288 288 288 289 292 289 288 287 288 293 293 293 293 292 291 289 286 284 284 279
285 284 285 285 285 285 285 285 285 285 285 285 285 286 285 285 288 291 291 286 286 286 286 287 287 287 291 292 289 288 286 286 287 286 286 286 288 288 288 286 286 283 279
283 284 284 285 285 285 284 285 285 285 285 285 284 285 285 285 286 291 293 287 286 285 285 285 286 291 292 292 292 289 287 286 286 283 282 282 281 281 282 282 283 284 281
281 283 283 283 285 285 284 284 284 284 283 283 283 284 285 285 287 290 291 289 288 285 284 286 288 290 291 290 288 289 287 285 283 281 280 279 278 278 278 278 279 279 279
282 283 281 280 283 284 284 283 283 283 281 281 282 282 283 284 285 288 288 288 288 285 286 288 289 288 288 287 287 286 284 282 281 279 277 277 277 278 278 277 277 276 275
283 281 280 278 278 280 283 284 283 283 282 282 282 282 283 283 283 284 284 285 285 285 285 284 285 284 284 283 282 282 282 281 280 279 278 279 279 278 277 277 275 274 272
282 282 279 278 278 279 280 282 284 284 285 283 283 283 282 282 284 286 284 283 283 284 283 283 282 281 280 280 281 281 281 281 279 279 278 278 277 276 274 274 272 270 269
281 282 279 278 276 278 279 278 284 285 287 287 287 286 285 287 287 286 286 286 285 284 281 279 279 279 278 279 278 278 278 278 278 277 276 275 273 271 269 269 268 266 264
282 282 279 277 276 276 276 277 276 280 283 285 286 286 286 286 286 286 285 285 284 282 278 277 276 276 275 275 275 275 274 274 275 273 272 271 270 269 267 265 264 263 261
281 281 280 277 276 275 275 273 273 277 276 277 280 284 284 284 284 284 283 281 276 276 275 274 273 274 274 273 273 272 271 271 270 269 268 267 267 266 264 263 262 261 260
281 281 279 276 276 276 275 274 270 270 275 275 274 277 275 281 280 280 278 274 272 270 271 270 269 269 269 268 268 268 268 267 266 265 264 264 264 263 261 261 260 259 259
281 280 279 277 276 275 275 274 271 272 275 273 266 266 267 271 267 267 267 267 267 266 266 265 265 265 265 266 265 265 264 263 262 261 260 260 261 261 259 258 258 257 256
282 279 279 277 278 278 277 276 273 271 272 268 266 267 273 264 263 262 264 263 264 264 264 264 264 263 263 264 263 263 263 262 262 261 261 260 261 258 258 258 256 255 254
281 280 278 279 278 277 277 274 273 271 272 270 268 270 272 262 262 262 261 259 258 258 259 263 259 257 256 261 262 262 261 261 260 260 259 259 258 257 256 256 254 252 252
281 280 279 279 278 277 276 275 272 270 270 267 263 262 260 261 261 260 259 256 258 260 258 261 260 258 256 256 257 262 262 261 260 261 259 258 257 256 257 255 253 251 249
281 281 279 279 278 277 277 276 273 270 268 265 263 261 262 260 260 258 258 256 257 257 257 258 259 258 257 258 258 259 259 259 261 260 260 258 256 255 254 252 252 247 246
281 280 279 278 278 278 277 277 273 269 268 266 264 263 261 260 259 257 257 256 256 258 255 256 257 257 258 258 258 258 262 259 258 258 259 258 256 254 253 252 247 244 243
281 280 279 279 278 278 277 275 272 270 268 266 265 264 262 262 260 260 259 259 258 257 257 256 257 258 259 259 258 261 262 261 258 258 258 257 254 251 252 250 247 245 243
Wind_Speed
6 7 9 9 10 12 11 11 12 12 12 12 12 13 13 14 15 14 15 15 15 13 13 13 14 14 9 8 11 13 12 9 10 2 1 4 2 4 3 5 11 14 17
6 7 11 10 10 11 11 12 15 13 12 13 13 13 14 15 16 16 17 15 14 14 15 14 14 10 15 13 10 15 16 15 9 6 2 3 3 3 4 5 2 3 11
7 9 11 10 11 11 12 12 15 16 16 13 12 13 15 16 15 15 15 15 14 14 14 12 11 10 14 10 10 9 13 12 6 4 4 1 1 2 3 4 2 4 3
10 10 11 10 11 12 12 12 13 14 14 12 12 13 15 15 15 15 14 14 14 13 12 9 11 13 12 3 8 6 13 12 7 5 3 3 2 1 3 2 1 2 2
9 11 12 11 11 12 12 12 12 12 12 12 12 13 14 13 10 13 13 12 12 12 11 12 12 14 10 9 5 5 11 8 9 6 3 3 2 3 6 3 3 2 2
8 10 12 12 11 11 12 12 12 12 11 10 11 13 13 10 15 18 14 9 9 10 9 11 10 7 10 15 11 7 13 6 6 5 3 3 4 3 3 3 4 3 2
8 10 11 12 12 10 11 11 11 11 10 10 11 11 12 11 16 16 13 7 8 7 9 7 8 7 6 6 6 9 9 13 15 8 8 6 6 9 8 6 4 3 2
8 9 10 11 12 11 11 10 9 9 9 10 10 11 11 9 15 14 11 6 7 8 7 9 9 7 7 6 5 6 5 8 10 6 9 4 4 8 6 4 7 7 5
6 10 10 10 12 11 11 10 9 8 9 8 8 9 10 9 14 14 10 5 5 6 6 6 5 6 8 11 6 7 6 6 14 17 14 15 15 17 13 9 6 7 2
6 9 9 9 10 10 10 10 7 7 9 8 9 8 10 10 15 15 8 2 4 3 4 6 10 8 10 11 9 10 9 5 13 11 9 15 14 13 12 5 7 7 5
5 8 8 7 9 9 11 7 8 8 8 7 7 8 9 11 12 14 6 3 3 1 1 2 3 8 9 10 12 9 10 11 17 13 11 10 10 10 8 9 9 4 4
5 6 6 5 6 6 8 8 9 8 7 7 7 7 6 9 15 13 8 5 5 3 2 3 6 15 17 19 15 24 23 17 11 10 11 9 9 9 9 11 14 13 12
5 5 5 4 5 7 7 9 8 8 7 6 5 5 6 7 6 17 17 17 15 10 8 17 23 24 28 22 23 22 15 11 10 12 11 10 10 9 12 12 14 16 17
5 4 4 2 4 4 5 6 6 7 6 6 5 5 4 4 5 5 5 7 14 12 14 13 20 22 22 16 13 14 10 10 11 12 11 9 8 9 10 8 11 10 12
5 5 3 1 1 4 3 5 6 6 8 6 5 5 4 4 5 9 7 5 5 8 9 9 9 9 10 10 10 11 10 11 11 10 10 10 10 9 10 9 10 10 8
6 5 4 3 1 2 1 2 9 14 14 13 13 8 5 10 13 15 16 16 16 15 9 9 9 8 9 9 10 11 10 11 9 10 9 9 9 9 11 10 9 8 9
9 6 4 4 3 2 1 1 1 5 10 15 13 12 13 12 13 15 17 19 17 14 9 8 9 8 8 8 9 9 9 9 10 9 10 9 9 10 11 9 8 8 9
9 8 6 5 4 3 3 2 2 1 1 3 9 10 10 10 11 12 13 12 9 10 8 7 8 7 7 8 8 9 8 8 9 8 9 9 9 9 9 8 7 9 8
9 8 6 4 5 5 3 2 3 3 2 1 2 5 8 12 13 16 17 7 7 7 6 7 6 6 7 7 7 8 8 8 8 8 8 8 8 9 9 8 9 10 10
9 10 8 6 5 5 4 4 3 4 3 1 1 2 3 3 4 4 5 4 6 5 4 6 5 6 7 7 7 8 9 9 8 8 8 8 7 8 9 9 7 8 6
8 8 10 6 7 7 6 6 4 4 4 2 1 1 6 4 3 2 3 4 3 5 5 5 5 6 6 7 7 8 9 8 7 8 8 8 8 9 8 8 8 7 7
8 8 9 9 7 7 7 6 5 5 4 4 1 3 11 3 4 4 4 3 3 3 3 6 5 4 3 6 7 8 9 9 8 8 8 8 9 8 7 8 7 5 5
9 10 9 9 9 9 8 7 6 5 5 5 4 3 2 3 4 4 4 2 3 4 3 5 6 6 4 4 3 6 9 8 7 9 10 9 8 7 7 7 6 5 5
10 11 11 10 9 9 9 9 7 7 7 6 6 3 4 3 4 5 4 4 4 4 4 4 5 7 6 6 6 6 7 7 7 8 11 10 9 8 7 5 5 5 4
10 11 11 11 11 11 11 10 9 9 8 7 7 6 5 5 5 3 4 4 4 5 4 4 4 8 9 10 10 9 11 11 9 8 7 9 10 9 6 6 4 3 3
11 11 11 10 10 11 11 11 10 10 10 9 8 8 8 7 7 6 6 6 6 6 6 4 7 10 12 10 11 12 14 12 9 10 8 8 8 6 5 6 6 3 4
Wind_Direction
288 314 316 309 304 305 294 293 286 287 287 284 286 289 289 284 277 271 266 264 262 266 257 253 257 250 269 247 241 237 243 230 241 283 236 194 175 154 131 223 221 196 197
287 307 315 298 297 298 294 292 300 294 290 286 288 289 286 279 271 265 262 259 257 261 260 246 253 253 233 253 233 239 229 216 237 197 189 181 193 202 157 135 62 236 216
304 310 311 301 303 301 295 295 302 297 295 291 291 290 286 276 271 263 258 256 252 251 255 253 251 252 247 252 242 262 247 230 189 148 161 83 39 96 88 63 88 88 42
313 310 307 302 300 298 294 294 297 297 293 291 290 288 279 275 270 266 259 251 248 247 257 241 247 250 232 274 228 229 274 201 162 159 126 128 136 54 81 111 96 83 89
311 312 303 304 302 296 296 294 294 294 289 288 293 289 284 280 272 269 255 248 245 250 246 246 255 240 242 234 251 262 299 173 165 156 107 113 146 124 190 162 168 91 53
304 314 306 304 296 300 300 300 298 294 293 297 303 293 292 287 284 279 265 245 245 245 251 248 253 234 225 235 214 237 244 252 149 133 134 152 172 151 127 156 114 133 193
302 311 304 302 300 300 299 298 300 300 302 313 303 304 300 295 290 290 281 262 245 244 242 252 229 251 240 228 227 246 248 231 167 156 163 183 160 177 146 161 154 117 127
301 304 301 302 299 298 297 300 302 301 313 314 306 309 310 297 299 304 289 260 243 240 252 234 239 244 230 218 238 235 241 205 165 159 179 146 115 140 143 130 127 101 75
302 303 302 305 300 305 309 311 304 313 324 303 301 310 314 310 314 298 293 239 228 234 226 229 235 235 244 232 196 138 104 88 86 91 97 115 128 134 129 114 134 141 114
304 296 300 307 303 311 312 308 311 324 307 305 309 313 316 315 324 316 252 206 231 248 240 233 236 247 245 231 154 128 119 116 109 88 73 66 69 80 63 61 145 141 125
285 290 294 313 313 316 330 322 335 330 312 311 321 331 332 334 337 343 243 206 230 214 260 262 231 236 223 147 132 124 125 114 97 92 84 75 67 60 55 57 51 83 98
278 288 295 318 324 331 328 349 353 339 328 327 336 340 347 347 354 15 29 75 101 82 33 41 93 105 107 107 98 114 113 102 93 91 85 78 83 79 75 72 68 68 60
274 278 292 325 321 351 349 1 2 354 340 329 343 336 350 349 0 41 63 65 68 75 75 82 87 90 88 84 94 95 88 91 95 90 89 86 84 90 90 82 77 75 64
260 264 285 5 336 332 358 9 6 357 341 345 345 341 347 354 358 7 32 60 70 76 77 78 82 82 82 85 77 73 80 88 99 101 98 95 94 88 81 77 78 73 69
226 257 239 180 9 322 356 6 14 3 4 351 352 351 357 13 43 66 69 66 71 82 88 75 71 72 77 81 83 84 87 88 89 93 97 95 87 83 74 67 65 66 81
215 236 217 174 175 275 344 344 21 17 19 30 31 28 34 65 75 77 78 80 80 82 75 77 74 76 81 86 86 84 79 84 85 88 85 86 85 83 81 70 71 77 82
229 208 219 165 183 188 257 105 24 347 -0 23 35 51 64 73 74 84 89 82 77 78 75 73 76 74 75 77 80 82 81 72 81 80 81 82 91 86 86 90 90 89 78
224 217 205 187 173 167 184 199 137 117 0 342 354 23 47 65 75 83 87 79 60 45 60 72 76 78 80 82 81 84 82 79 78 84 86 85 87 94 96 96 99 98 92
210 222 202 191 173 163 163 184 136 130 139 319 360 5 6 45 60 65 64 71 80 65 61 67 65 72 76 80 80 80 85 85 86 88 84 89 92 98 97 96 91 87 91
214 213 192 186 172 162 169 170 172 150 167 206 275 249 322 9 31 29 39 61 81 79 76 85 78 82 86 88 89 92 92 90 89 87 86 88 90 92 95 100 103 103 87
202 196 194 177 181 176 175 184 185 155 160 151 207 207 111 115 96 52 63 41 76 98 100 95 89 86 83 92 96 98 96 98 100 106 103 100 110 105 93 88 94 97 105
200 194 195 191 180 175 176 165 170 167 158 135 100 96 112 75 95 97 82 77 62 59 56 101 87 83 101 116 121 117 114 112 110 112 105 97 95 96 97 99 97 90 86
197 191 191 192 185 168 160 164 164 169 162 128 123 122 96 111 108 104 108 76 80 89 68 96 104 92 65 69 66 114 122 121 119 119 115 113 115 112 111 106 105 89 81
200 194 189 192 181 174 171 169 166 161 155 151 146 153 140 134 133 131 121 102 91 78 70 89 102 112 101 84 75 81 97 106 110 112 118 119 117 113 109 104 105 103 113
200 191 187 186 182 179 170 169 165 161 161 161 158 152 141 128 123 124 118 105 106 105 85 88 89 111 112 115 114 111 116 104 108 109 105 110 114 111 109 114 124 110 114
197 194 188 183 182 180 176 168 167 164 166 162 162 156 154 153 148 148 144 136 127 118 117 107 115 117 118 114 114 115 119 119 110 105 104 109 112 111 115 118 123 112 118